Regional Weather Roundup
Issued by NWS

Home | Current Version | Previous Version | Text Only | Print | Product List | Glossary On
Versions: 1 2 3 4 5 6 7 8 9 10 11 12 13 14 15 16 17 18 19 20 21 22 23 24 25 26 27 28 29 30 31 32 33 34 35 36 37 38 39 40 41 42 43 44 45 46 47 48 49 50
000
ASUS45 KSLC 211310
RWRUT

UTAH REGIONAL WEATHER ROUNDUP
NATIONAL WEATHER SERVICE SALT LAKE CITY UT
700 AM MDT TUE APR 21 2015

UTZ001>011-023>025-211400-

NORTHERN UTAH

CITY           SKY/WX    TMP DP  RH WIND       PRES   REMARKS
BRIGHAM CITY   CLEAR     40  32  74 NW3       29.90R
HILL AFB       CLEAR     45  24  44 E21       29.90R
LOGAN          CLEAR     34  30  85 CALM      29.90R
OGDEN          CLEAR     45  26  47 S9        29.88R
PROVO AIRPORT  CLEAR    N/A N/A N/A CALM      29.93R
SALT LAKE CITY PTCLDY    48  30  49 SE12      29.88S
VERNAL         CLEAR     37  25  61 W5        29.96R WCI  33
WENDOVER       PTCLDY    41  19  42 SW3       29.88R
HEBER CITY     CLEAR     28  23  80 CALM      29.98R
WEST JORDAN    CLEAR     43  28  56 S6        29.90S

$$

UTZ012>022-026-027-211400-

SOUTHERN/CENTRAL UTAH

CITY           SKY/WX    TMP DP  RH WIND       PRES   REMARKS
BLANDING       CLEAR     42  27  55 NE6       30.04R
BRYCE CANYON   CLEAR     27  17  66 W5        30.04R WCI  22
CEDAR CITY     CLEAR     36  17  46 NE7       29.94R WCI  30
DELTA          PTCLDY    37  25  60 NE7       29.91R WCI  32
HANKSVILLE     CLEAR     34  27  75 CALM      29.93R
MILFORD        CLEAR     35  17  47 S9        29.92R WCI  28
MOAB/CYNLANDS  CLEAR     44  35  70 S3        29.90R
PRICE          PTCLDY    37  17  44 E6        29.94R WCI  32
ST GEORGE      SUNNY     54  18  24 CALM      29.88R

$$

REGIONAL REPORTS     COLORADO/ARIZONA

CITY           SKY/WX    TMP DP  RH WIND       PRES   REMARKS
CRAIG, CO      CLEAR     27  24  89 SW3       30.00R
GRAND JUNCTION CLEAR     41  34  76 E9        29.94R
RIFLE          CLEAR     35  31  85 E5        30.01R WCI  31
MONTROSE       CLEAR     36  28  73 S8        30.00R WCI  30
CORTEZ         CLEAR     28  21  75 E6        30.00R WCI  22
PAGE, AZ       CLEAR     52  22  30 CALM      29.91R
GRAND CANYON   PTCLDY    22  13  68 CALM      30.03R
KINGMAN        CLEAR     52  22  30 SE12      29.87R
FLAGSTAFF      PTCLDY    29  19  66 CALM      30.05R

$$

REGIONAL REPORTS    NEVADA/IDAHO/WYOMING

CITY           SKY/WX    TMP DP  RH WIND       PRES   REMARKS
LAS VEGAS, NV  PTCLDY    66  21  18 SW7       29.75R
ELY            PTCLDY    27   6  41 S13       29.97R WCI  16
ELKO           PTCLDY    32  17  54 E5        29.93R WCI  27
POCATELLO, ID  CLEAR     32  27  81 N8        29.90R WCI  25
BURLEY         CLEAR     37  26  64 CALM      29.86R
EVANSTON, WY   PTCLDY    34  20  56 S8        29.98R WCI  27
ROCK SPRINGS   PTCLDY    35  20  54 S3        29.98R

$$


USA.gov is the U.S. government's official web portal to all federal, state and local government web resources and services.